This demonstration page uses our WeatherBlox Daily Observations layout. Learn more.

Left ArrowRight Arrow

Hourly Observations for September 7, 2015

Temp ( °F °C ) Dew Point ( °F °C ) Humidity (%) Winds ( mph kmh ) Pressure ( in mb ) Visibility ( mi km ) Precip ( " mm )
12:59 am 00:59 Mostly Cloudy 74 23.3 68 20 82 82 E 6 9 30.13 1020 10 16 0.00 0.00
1:59 am 01:59 Partly Cloudy 72 22.2 68 20 87 87 Calm 30.11 1020 10 16 0.00 0.00
2:59 am 02:59 Mostly Cloudy 71 21.7 67 19.4 87 87 Calm 30.11 1020 10 16 0.00 0.00
3:59 am 03:59 Partly Cloudy 71 21.7 67 19.4 87 87 Calm 30.11 1020 10 16 0.00 0.00
4:59 am 04:59 Partly Cloudy 70 21.1 67 19.4 90 90 Calm 30.11 1020 8 13 0.00 0.00
5:59 am 05:59 Partly Cloudy 69 20.6 67 19.4 93 93 Calm 30.12 1020 9 14 0.00 0.00
6:59 am 06:59 Mostly Cloudy 68 20 66 18.9 93 93 Calm 30.13 1020 9 14 0.00 0.00
7:59 am 07:59 Mostly Cloudy 75 23.9 71 21.7 88 88 Calm 30.15 1021 9 14 0.00 0.00
8:59 am 08:59 Partly Cloudy 79 26.1 70 21.1 74 74 ENE 6 9 30.15 1021 10 16 0.00 0.00
9:59 am 09:59 Partly Cloudy 81 27.2 71 21.7 72 72 NE 13 20 30.16 1021 10 16 0.00 0.00
10:59 am 10:59 Partly Cloudy 81 27.2 69 20.6 67 67 ENE 10 17 30.16 1021 10 16 0.00 0.00
11:59 am 11:59 Partly Cloudy 82 27.8 68 20 63 63 NE 8 13 30.17 1022 10 16 0.00 0.00
12:59 pm 12:59 Partly Cloudy 82 27.8 68 20 63 63 E 10 17 30.15 1021 10 16 0.00 0.00
1:59 pm 13:59 Partly Cloudy 83 28.3 67 19.4 59 59 ENE 12 19 30.14 1021 10 16 0.00 0.00
2:59 pm 14:59 Mostly Cloudy 82 27.8 66 18.9 58 58 ENE 9 15 30.12 1020 10 16 0.00 0.00
3:59 pm 15:59 Mostly Cloudy 83 28.3 61 16.1 48 48 ENE 8 13 30.09 1019 10 16 0.00 0.00
4:59 pm 16:59 Partly Cloudy 82 27.8 64 17.8 55 55 E 9 15 30.08 1019 10 16 0.00 0.00
5:59 pm 17:59 Partly Cloudy 80 26.7 67 19.4 64 64 E 8 13 30.09 1019 10 16 0.00 0.00
6:59 pm 18:59 Mostly Cloudy 79 26.1 69 20.6 72 72 E 7 11 30.09 1019 10 16 0.00 0.00
7:59 pm 19:59 Mostly Cloudy 77 25 70 21.1 79 79 ESE 5 7 30.09 1019 10 16 0.00 0.00
8:59 pm 20:59 Partly Cloudy 76 24.4 71 21.7 85 85 ESE 5 7 30.10 1019 10 16 0.00 0.00
9:59 pm 21:59 Mostly Clear 76 24.4 71 21.7 85 85 Calm 30.11 1020 10 16 0.00 0.00
10:59 pm 22:59 Partly Cloudy 73 22.8 70 21.1 90 90 Calm 30.11 1020 10 16 0.00 0.00
11:59 pm 23:59 Clear 73 22.8 70 21.1 90 90 Calm 30.11 1020 9 14 0.00 0.00

Powered by AerisWeather